Regional Weather Roundup
Issued by NWS

Home | Current Version | Previous Version | Graphics & Text | Print | Product List | Glossary On
Versions: 1 2 3 4 5 6 7 8 9 10 11 12 13 14 15 16 17 18 19 20 21 22 23 24 25 26 27 28 29 30 31 32 33 34 35 36 37 38 39 40 41 42 43 44 45 46 47 48 49 50
000
ASUS43 KMPX 200601
RWRMN
WEATHER ROUNDUP FOR MINNESOTA
NATIONAL WEATHER SERVICE TWIN CITIES/CHANHASSEN MN
100 AM CDT FRI OCT 20 2017


NOTE: "FAIR" INDICATES FEW OR NO CLOUDS BELOW 12,000 FEET WITH NO
SIGNIFICANT WEATHER AND/OR OBSTRUCTIONS TO VISIBILITY. N/A MEANS
CURRENT SKY AND/OR WEATHER CONDITIONS ARE NOT AVAILABLE.

MNZ060>063-068>070-200700-
   Twin Cities Metro

CITY           SKY/WX    TMP DP  RH WIND       PRES   REMARKS
TWIN CITIES    FAIR      55  46  71 SE6       29.92F
6HR MIN TEMP:  54; 6HR MAX TEMP:  68;

ST PAUL        FAIR      53  44  71 SE9       29.93F
CRYSTAL        FAIR      56  42  59 SE5       29.90F
BLAINE         FAIR      57  45  62 S8        29.91S
LAKEVILLE      FAIR      57  48  72 S7        29.92F
EDEN PRAIRIE   FAIR      57  47  69 S6        29.90F
6HR MIN TEMP:  57; 6HR MAX TEMP:  66;

SOUTH ST PAUL  FAIR      56  42  59 SE7       29.93S
LAKE ELMO      FAIR      55  43  62 S9        29.94S
$$
MNZ001>005-007-008-013>017-022>024-027-028-200700-
   Northwest Minnesota

CITY           SKY/WX    TMP DP  RH WIND       PRES   REMARKS
BEMIDJI        FAIR      55  42  60 S8        29.78F
HALLOCK        FAIR      48  37  66 SE12      29.68F
ROSEAU         FAIR      48  43  81 S9        29.72S
WARROAD        FAIR      52  43  71 S3        29.73F
CROOKSTON      FAIR      55  45  67 S10       29.71F
FOSSTON        FAIR      54  43  66 S9        29.75F
DETROIT LAKES  FAIR      55  46  71 S9        29.79F
MOORHEAD       FAIR      57  46  67 SE15      29.73F
PARK RAPIDS    FAIR      52  43  71 S10       29.81F
MAHNOMEN       FAIR      59  47  64 S10G16    29.75F
$$
MNZ006-009>011-018-025>026-200700-
   North Central Minnesota

CITY           SKY/WX    TMP DP  RH WIND       PRES   REMARKS
BAUDETTE       FAIR      52  39  61 SE3       29.75S
FLAG ISLAND    FAIR      52  45  76 S7        29.71F
INTL FALLS     FAIR      54  36  50 S5        29.78F
6HR MIN TEMP:  47; 6HR MAX TEMP:  59;

WASKISH        FAIR      55  41  58 CALM      29.77S
BIG FORK       FAIR      57  39  51 S7        29.81S
LONGVILLE      FAIR      57  43  58 S8        29.83S
GRAND RAPIDS   FAIR      55  40  56 S13       29.85F
CRANE LAKE     FAIR      54  36  50 CALM      29.84S
ORR            FAIR      52  32  46 SE3       29.81S
COOK           FAIR      57  37  47 S3        29.84S
WALKER         FAIR      57  43  58 S9        29.81S
$$
MNZ012-019>021-037-200700-
   Northeast Minnesota

CITY           SKY/WX    TMP DP  RH WIND       PRES   REMARKS
DULUTH         FAIR      56  37  49 SW13      29.90F
6HR MIN TEMP:  56; 6HR MAX TEMP:  60;

ELY            FAIR      57  34  41 S7        29.86F
HIBBING        FAIR      36  33  89 CALM      29.86S
EVELETH        FAIR      45  37  73 S3        29.88S
DULUTH HARBOR  FAIR      54  48  82 CALM      29.90F
TWO HARBORS    FAIR      45  37  76 CALM      29.89S
SILVER BAY     FAIR      37  36  93 CALM      29.89F
GRAND MARAIS     N/A     42  38  85 CALM      29.90F
G MARAIS ARPRT FAIR      50  34  53 S6        29.91F
$$
MNZ029>031-032-039>041-046>048-054>057-064-200700-
   West Central Minnesota

CITY           SKY/WX    TMP DP  RH WIND       PRES   REMARKS
FERGUS FALLS   FAIR      57  46  67 S12       29.78F
WHEATON        FAIR      52  45  76 SE10      29.78F
MORRIS         FAIR      52  46  82 SE9       29.80F
ALEXANDRIA     FAIR      56  47  71 S10       29.84F
ELBOW LAKE     FAIR      53  46  79 E9        29.80F
WADENA         FAIR      54  45  71 S5        29.82S
GLENWOOD       FAIR      54  46  76 S9        29.85S
APPLETON       FAIR      54  46  76 SE7       29.81S
BENSON         FAIR      55  46  71 S12       29.84F
ORTONVILLE     FAIR      54  46  76 NE7       29.79F
MADISON        FAIR      64  54  68 S10G16    29.80F
WILLMAR        FAIR      52  46  82 SE6       29.87S
$$
MNZ033>034-036-042>043-049>051-058-059-200700-
   Central Minnesota

CITY           SKY/WX    TMP DP  RH WIND       PRES   REMARKS
ST CLOUD       FAIR      52  45  77 S7        29.88F
6HR MIN TEMP:  52; 6HR MAX TEMP:  62;

SAUK CENTRE    FAIR      51  45  78 SE8       29.85F
AITKIN         FAIR      55  39  54 S8        29.85S
PINE RIVER     FAIR      48  39  71 SE5       29.88S
BRAINERD       FAIR      54  42  64 S9        29.86F
STAPLES        FAIR      52  41  66 SE5       29.84S
LONG PRAIRIE   FAIR      50  43  76 SE6       29.85F
LITTLE FALLS   FAIR      52  36  54 SE3       29.87S
LITCHFIELD     FAIR      57  52  82 S3        29.88S
BUFFALO        FAIR      57  46  66 S5        29.90S
MAPLE LAKE     FAIR      55  46  74 CALM      29.90S
HUTCHINSON     FAIR      57  51  79 S6        29.89F
$$
MNZ037-044-045-052-053-200700-
   East Central Minnesota

CITY           SKY/WX    TMP DP  RH WIND       PRES   REMARKS
PRINCETON      FAIR      52  43  71 CALM      29.90S
MORA           FAIR      43  37  81 CALM      29.92S
CAMBRIDGE      FAIR      57  43  58 S7        29.90F
RUSH CITY      MOCLDY    53  39  59 S5        29.91S
MOOSE LAKE     FAIR      54  37  54 S5        29.88F
HINCKLEY       FAIR      50  37  62 CALM      29.91S
CLOQUET        FAIR      55  34  44 S5        29.90S
MCGREGOR       FAIR      54  39  58 S3        29.88S
$$
MNZ071>073-080-081-089-090-097-098-200700-
   Southwest Minnesota

CITY           SKY/WX    TMP DP  RH WIND       PRES   REMARKS
MONTEVIDEO     FAIR      54  48  82 S6        29.83S
GRANITE FALLS  FAIR      58  51  78 SE8       29.85F
CANBY          FAIR      68  51  53 SW15G25   29.80F
MARSHALL       FAIR      64  52  64 SW17      29.82S
REDWOOD FALLS  FAIR      54  48  80 S6        29.86F
OLIVIA         FAIR      54  46  76 S8        29.85F
PIPESTONE      FAIR      57  48  72 S7        29.88S
WORTHINGTON    FAIR      59  50  72 S10       29.91F
JACKSON        FAIR      57  50  77 S13       29.92F
TRACY          FAIR      63  53  70 S16G22    29.86S
SLAYTON        FAIR      60  51  73 S8        29.89F
$$
MNZ065>067-074>077-082>085-091>093-200700-
   South Central Minnesota

CITY           SKY/WX    TMP DP  RH WIND       PRES   REMARKS
MANKATO        FAIR      59  51  75 S10G18    29.92F
NEW ULM        FAIR      55  48  76 S13       29.89F
ST JAMES       FAIR      57  52  82 S8        29.92S
FAIRMONT       FAIR      55  51  86 S9        29.93F
GLENCOE        FAIR      58  50  74 S6        29.89F
FARIBAULT      FAIR      57  48  72 S10       29.94F
OWATONNA       FAIR      57  50  77 S13       29.95S
WASECA         FAIR      59  50  72 S12       29.95F
$$
MNZ078>079-086>088-094>096-200700-
   Southeast Minnesota

CITY           SKY/WX    TMP DP  RH WIND       PRES   REMARKS
ROCHESTER      FAIR      54  48  80 S9        30.00F
6HR MIN TEMP:  54; 6HR MAX TEMP:  61;

RED WING       FAIR      57  41  54 SE7       29.95F
STANTON        FAIR      58  48  70 S8        29.93S
DODGE CENTER   FAIR      57  48  72 S15       29.97S
WINONA         FAIR      57  45  62 SE7       29.99F
AUSTIN         FAIR      54  48  82 S5        29.98F
PRESTON        FAIR      56  47  72 S13       30.01F
$$
ABBREVIATIONS USED IN REMARKS
   TC - TEMPERATURES IN CELSIUS
  WCI - WIND CHILL INDEX
   HX - HEAT INDEX
  VSB - VISIBILITY
$$




USA.gov is the U.S. government's official web portal to all federal, state and local government web resources and services.